sat.trackr.live / text

‹ back to catalog

STARLINK-33966

NORAD 64203 · 2025-117A

PAYLOAD ACTIVE UNKNOWN

§ Identity

Operator
Country
US
Launch date
2025-05-31
Launch site
AFWTR
Launch vehicle
Mass (kg)
RCS (m²)

Purposes: comms

External: N2YO · Heavens-Above · Gunter

§ Orbital elements

Epoch: 2026-09-19T12:53:11.404320Z

Period
93.85 min
Inclination
53.1594°
Eccentricity
0.0000578
Mean motion
15.34396181 rev/d
Perigee alt
462.3 km
Apogee alt
463.1 km
Semi-major
6,840.9 km
B*
5.9347e-4
RAAN
217.8536°
Arg perigee
120.6396°
Mean anomaly
239.4663°
Rev number
7,425

§ Raw data

STARLINK-339661 64203U 25117A   26262.53693755  .00019726  00000+0  59347-3 0  99972 64203  53.1594 217.8536 0000578 120.6396 239.4663 15.34396181 74255

JSON: /api/v1/satellites/64203 · /tle

For live sub-satellite position, see the globe view (requires WebGL).

§ Visibility from observer

Set your observer location to see the next 7 days of passes ≥ 10°. The values pass through the URL so the page stays shareable.

No JS? Fill the form by hand. The geolocation button needs JavaScript.